Theta_e
339 340 341 337 327 334 339 340 340 339 333 329 330 328 326 327 332 331 331 329 330 334 334 331 331 334 330 331 331 330 329 330 329
338 338 339 340 339 331 335 338 340 339 337 330 330 329 326 326 330 332 331 329 329 331 334 333 331 329 331 329 329 329 329 328 329
339 339 338 339 340 340 336 334 337 339 339 335 330 330 328 326 325 330 330 329 331 334 332 333 333 332 329 330 329 328 328 328 329
340 340 339 338 338 339 339 338 335 336 338 338 334 331 330 329 327 328 330 330 330 331 331 332 334 333 331 329 330 328 328 328 328
330 339 341 340 339 339 340 339 338 337 336 337 337 334 332 333 332 327 329 330 331 333 330 332 335 334 331 329 329 330 329 328 328
318 327 326 332 335 339 340 340 339 339 337 336 337 337 334 332 331 331 328 329 332 334 332 330 334 334 332 331 327 328 329 328 329
316 316 316 318 322 324 328 336 339 340 339 338 336 337 337 336 333 332 331 330 331 334 331 329 331 332 332 330 330 328 328 329 329
311 312 313 315 315 322 328 330 331 337 339 339 339 338 336 337 336 335 334 333 334 335 332 330 327 333 332 332 332 329 329 329 329
312 312 312 312 312 313 314 315 324 334 334 335 338 339 338 338 338 338 337 334 334 334 333 331 330 325 332 333 332 329 327 329 329
313 313 312 312 312 312 312 312 313 314 317 327 334 335 337 338 339 339 338 336 335 335 333 332 332 331 334 334 332 331 330 328 327
314 314 313 313 313 312 312 312 312 312 312 313 314 324 333 335 337 337 337 336 336 335 334 333 333 335 335 335 333 332 331 331 329
313 313 313 314 314 314 313 312 312 312 312 312 312 313 314 321 331 334 334 336 336 336 336 334 333 332 334 335 333 333 332 332 331
311 312 313 313 313 314 314 314 314 314 313 312 312 312 313 314 316 324 331 332 334 335 335 336 334 333 333 335 335 334 334 333 333
307 307 308 310 312 313 313 314 313 313 313 313 313 313 314 314 314 314 317 327 331 332 333 333 334 333 333 334 335 335 334 334 334
302 302 303 305 306 309 312 313 313 313 313 313 313 313 314 313 314 314 314 315 318 324 330 330 329 330 331 333 333 333 334 332 334
301 305 306 306 306 306 307 309 311 312 313 313 313 313 313 313 314 314 314 314 314 314 315 316 326 328 325 327 330 332 332 332 332
305 305 305 304 304 305 306 307 309 311 311 312 312 311 312 313 313 313 314 313 314 314 314 315 316 319 321 324 327 328 332 332 332
305 304 303 302 302 302 304 306 307 310 311 312 312 314 314 312 312 312 312 312 312 313 312 314 314 316 318 323 323 326 329 331 331
304 303 302 302 302 303 304 306 308 309 311 311 312 312 312 313 313 312 312 312 312 312 312 312 313 313 313 315 320 324 324 324 325
303 303 302 302 302 303 303 305 307 309 310 310 310 310 310 311 309 310 309 311 311 311 311 310 310 309 309 310 311 313 315 320 323
Wind_Speed
7 8 8 7 8 7 7 10 10 9 8 7 7 6 6 6 5 2 3 6 5 5 6 6 8 8 6 8 5 5 6 5 4
10 9 10 10 9 8 8 10 11 11 11 10 10 9 8 8 8 6 5 9 7 5 9 9 8 8 8 5 10 6 5 4 5
11 12 12 12 12 11 11 11 13 14 13 13 12 12 11 11 10 10 7 12 9 10 10 12 10 9 8 10 9 9 7 6 5
11 12 13 14 15 14 14 14 14 16 16 15 15 15 15 14 13 12 10 13 14 13 13 14 14 12 11 11 11 10 10 9 8
10 11 13 15 16 17 19 18 16 17 18 18 18 18 18 19 17 16 17 13 19 15 14 14 16 16 13 15 13 13 12 11 11
9 10 12 12 16 17 18 20 20 19 19 20 20 20 22 23 23 22 20 20 18 19 18 16 17 17 16 17 15 16 15 14 14
15 14 14 14 15 16 17 21 21 21 22 23 23 24 26 26 27 26 22 20 21 23 22 19 21 21 20 19 19 18 18 16 16
16 16 14 14 13 15 17 16 17 20 24 27 27 27 28 29 29 28 25 23 23 27 27 23 22 26 25 24 22 22 20 19 18
15 15 15 16 15 15 14 14 15 21 21 23 25 26 28 29 29 30 28 26 26 30 31 28 25 25 26 25 25 24 26 23 21
15 16 17 18 18 18 19 20 20 20 18 20 24 24 28 31 29 30 29 25 25 31 35 32 28 26 27 27 29 29 28 29 26
14 16 18 20 19 20 19 19 21 22 22 22 21 21 26 28 30 32 32 31 30 28 34 34 31 27 28 29 30 31 31 30 30
13 15 16 16 16 17 20 22 22 23 24 25 26 25 24 24 26 28 29 33 30 30 34 34 35 32 30 31 33 33 34 34 33
12 13 14 15 16 16 17 18 20 21 22 25 26 27 26 25 23 23 28 27 28 32 33 35 35 35 34 32 34 35 36 36 36
12 12 13 15 16 16 17 18 18 21 23 25 24 24 23 25 26 24 23 22 26 27 27 29 32 36 37 37 34 38 37 37 38
15 15 16 16 15 15 15 16 17 18 18 19 20 23 25 29 29 29 27 26 22 20 23 25 28 30 32 37 38 38 39 40 39
15 15 16 16 16 15 14 17 16 15 15 17 20 18 21 21 22 24 25 26 27 30 32 33 31 31 32 33 36 38 40 42 42
13 14 17 18 18 18 14 14 15 14 15 12 14 3 8 12 14 16 12 13 15 16 17 21 28 32 34 34 34 35 40 42 41
15 16 16 17 17 14 12 13 13 13 15 14 6 3 2 8 15 20 21 18 20 19 20 17 19 17 20 29 33 32 34 37 40
14 17 14 13 12 11 11 11 12 14 12 15 10 12 12 3 5 7 17 18 16 16 16 18 18 19 21 17 18 26 28 29 34
15 13 12 13 13 13 13 14 14 13 13 16 16 17 17 17 2 5 5 25 23 21 24 26 26 27 27 26 24 20 19 23 27
Wind_Direction
269 274 276 280 275 278 247 244 250 255 253 244 240 238 218 199 190 237 216 234 196 195 192 180 172 162 162 152 149 156 142 138 144
274 276 272 267 272 272 261 248 252 251 249 247 242 245 236 227 229 235 239 231 241 215 190 190 196 200 190 200 181 173 180 174 166
272 270 269 267 261 265 265 258 251 252 249 247 244 244 241 237 241 236 280 224 225 203 216 213 204 199 191 183 183 195 200 202 195
282 273 270 271 270 264 261 259 252 250 252 251 249 246 244 244 246 238 254 231 244 228 222 216 213 207 205 204 206 194 205 205 214
301 289 279 274 272 270 267 262 259 254 255 253 252 250 249 248 248 242 242 250 243 232 229 221 211 214 215 212 213 205 208 215 217
312 292 294 292 288 281 276 268 263 262 262 261 259 256 249 250 252 252 246 245 244 226 229 231 219 217 221 218 225 216 220 224 225
281 288 291 295 290 290 288 277 270 262 259 258 257 253 253 254 254 256 259 246 242 231 239 240 233 228 226 227 225 225 225 227 228
290 289 290 293 306 291 282 288 290 277 269 263 260 260 260 258 256 258 258 248 247 233 238 244 241 234 233 233 228 229 229 232 233
298 296 291 291 298 300 293 295 289 282 283 280 273 264 263 261 259 261 259 248 243 242 237 246 247 242 236 232 232 234 231 232 235
297 293 289 287 289 292 292 290 296 291 292 288 278 273 265 261 261 259 260 245 248 248 239 243 246 239 233 235 235 237 238 236 237
304 299 294 288 287 285 288 290 293 296 294 293 290 291 282 277 269 265 260 248 250 249 241 247 243 235 230 234 239 240 240 240 242
309 306 304 303 301 296 287 282 285 287 285 287 286 289 290 289 281 275 268 263 262 254 250 246 249 246 239 234 237 241 244 244 244
317 312 307 307 301 297 299 297 295 293 292 290 287 285 285 285 286 295 279 277 273 267 261 252 249 251 251 241 240 240 242 245 247
305 306 309 309 307 306 306 303 300 298 295 293 290 288 289 287 288 290 285 285 282 279 276 273 260 254 255 253 246 243 241 243 246
305 303 303 304 306 310 312 312 305 303 307 306 301 295 290 281 282 284 285 286 286 288 283 279 274 272 267 257 254 253 247 245 244
314 316 311 307 303 310 317 311 318 316 316 313 312 306 295 294 286 285 288 290 288 287 285 283 280 278 279 273 266 259 257 252 248
320 312 309 308 304 297 310 316 317 314 311 306 314 314 314 279 291 287 295 330 316 328 328 307 290 284 281 279 275 268 260 258 253
312 313 314 315 313 306 305 308 311 312 308 301 275 310 310 330 307 306 309 311 316 316 316 321 325 319 309 285 278 276 271 263 260
313 320 328 339 335 328 317 314 299 305 301 311 308 302 297 302 309 299 302 306 312 318 321 325 322 318 323 331 317 285 277 276 273
314 324 334 333 335 327 321 315 308 299 306 307 313 311 308 307 270 305 316 310 306 306 308 308 308 308 308 313 312 311 309 295 284